Content
SEND FEEDBACK

Daily
Averages
Monthly
Summary
United States of America

VINTON, LOUISIANA


Home > North America > United States > Louisiana
Elevation: 20 feet     Latitude: 30 12N     Longitude: 093 35W

WEATHER
 
SELECT A DAY
Number of Records: 183,026;   Date Range: 11/22/06 - 4/23/14
 
SHARE

PRINT THIS DATA

[ ← Previous Day ]
WEATHER ALMANAC - FEBRUARY 1, 2013
[ Next Day → ]
[ °C ]   °F
Weather ElementAverageHighLow
Temperature54 °F68 °F (1:55 pm)44.6 °F (5:35 am)
Dewpoint44.5 °F48.2 °F (7:35 pm)35.6 °F (1:35 pm)
Humidity74.2 %100 % (5:35 am)32 % (1:35 pm)
Barometer30.34 in30.41 in (9:15 am)30.30 in (6:35 pm)
Wind Speed3 mph11.5 mph (4:15 pm)
Weather ElementAverage
Visibility9.9 mi
Wind DirectionENE (74.4 °)

Weather ElementTotal
Precipitation---
Heating Degree Days8.7 (Base 65)
Growing Degree Days6.3 (Base 50)
Averaged from 68 records on February 1, 2013
WEATHER CONDITIONS BREAKOUT
WIND DIRECTION BREAKOUT
WEATHER BY HOUR - FEBRUARY 1, 2013
[ °C ]   °F
Local TimeTemperatureDewpointHumidityBarometerVisibilityWind DirectionWind SpeedGust SpeedPrecipitationEventsConditions
12:35 AM50.0 °F42.8 °F76 %30.34 in10.0 miSouth (190°)4.6 mphClear
12:55 AM50.0 °F42.8 °F76 %30.33 in10.0 miSouth (190°)4.6 mphClear
1:15 AM50.0 °F44.6 °F82 %30.32 in10.0 miSouth (180°)3.5 mphClear
1:35 AM50.0 °F44.6 °F82 %30.32 in10.0 miSouth (190°)3.5 mphClear
2:15 AM50.0 °F44.6 °F82 %30.32 in10.0 miCalmClear
2:35 AM50.0 °F44.6 °F82 %30.32 in10.0 miCalmClear
2:55 AM50.0 °F44.6 °F82 %30.32 in10.0 miCalmClear
3:15 AM46.4 °F44.6 °F93 %30.32 in10.0 miCalmClear
3:35 AM46.4 °F44.6 °F93 %30.32 in10.0 miCalmClear
3:55 AM46.4 °F44.6 °F93 %30.32 in10.0 miCalmClear
4:15 AM46.4 °F44.6 °F93 %30.32 in10.0 miCalmClear
4:35 AM46.4 °F44.6 °F93 %30.32 in10.0 miCalmClear
4:55 AM46.4 °F44.6 °F93 %30.32 in10.0 miCalmClear
5:15 AM46.4 °F44.6 °F93 %30.33 in10.0 miCalmClear
5:35 AM44.6 °F44.6 °F100 %30.34 in10.0 miCalmClear
5:55 AM44.6 °F44.6 °F100 %30.35 in10.0 miCalmClear
6:15 AM46.4 °F44.6 °F93 %30.35 in10.0 miCalmClear
6:35 AM44.6 °F44.6 °F100 %30.35 in10.0 miCalmClear
6:55 AM44.6 °F44.6 °F100 %30.35 in10.0 miCalmClear
7:15 AM44.6 °F44.6 °F100 %30.36 in10.0 miCalmClear
7:35 AM46.4 °F46.4 °F100 %30.37 in10.0 miCalmClear
7:55 AM48.2 °F44.6 °F87 %30.38 in10.0 miNorth (360°)3.5 mphClear
8:15 AM50.0 °F46.4 °F87 %30.39 in10.0 miNNE (20°)3.5 mphClear
8:35 AM51.8 °F46.4 °F82 %30.40 in10.0 miNorth (10°)8.1 mphClear
8:55 AM51.8 °F44.6 °F76 %30.40 in10.0 miNNE (20°)4.6 mphClear
9:15 AM53.6 °F46.4 °F77 %30.41 in10.0 miNNE (30°)3.5 mphClear
9:35 AM55.4 °F46.4 °F72 %30.41 in10.0 miNE (40°)5.8 mphClear
9:55 AM57.2 °F44.6 °F63 %30.41 in10.0 miENE (60°)4.6 mphClear
10:15 AM59.0 °F44.6 °F59 %30.41 in10.0 miENE (70°)5.8 mphClear
10:35 AM60.8 °F44.6 °F55 %30.40 in10.0 miEast (100°)5.8 mphClear
10:55 AM60.8 °F44.6 °F55 %30.39 in10.0 miCalmClear
11:15 AM62.6 °F44.6 °F52 %30.39 in10.0 miNorth (10°)3.5 mphClear
11:35 AM62.6 °F42.8 °F48 %30.39 in10.0 miCalmClear
11:55 AM64.4 °F42.8 °F45 %30.37 in10.0 miCalmClear
12:15 PM64.4 °F42.8 °F45 %30.37 in10.0 miCalmClear
12:35 PM64.4 °F41.0 °F42 %30.36 in7.0 miSouth (180°)3.5 mphClear
12:55 PM66.2 °F39.2 °F37 %30.35 in10.0 miENE (60°)3.5 mphClear
1:15 PM66.2 °F37.4 °F35 %30.34 in10.0 miSSW (200°)3.5 mphClear
1:35 PM66.2 °F35.6 °F32 %30.33 in7.0 miCalmClear
1:55 PM68.0 °F41.0 °F37 %30.32 in10.0 miEast (100°)5.8 mphClear
2:15 PM68.0 °F41.0 °F37 %30.32 in10.0 miESE (110°)5.8 mphClear
2:35 PM68.0 °F42.8 °F40 %30.32 in10.0 miSE (140°)10.4 mphClear
3:15 PM66.2 °F39.2 °F37 %30.31 in10.0 miSSE (150°)6.9 mphClear
3:35 PM66.2 °F41.0 °F40 %30.31 in10.0 miSSE (160°)9.2 mphClear
3:55 PM64.4 °F41.0 °F42 %30.31 in10.0 miSouth (170°)6.9 mphClear
4:15 PM64.4 °F42.8 °F45 %30.31 in10.0 miSouth (170°)11.5 mphClear
4:35 PM64.4 °F42.8 °F45 %30.31 in10.0 miSSE (160°)8.1 mphClear
4:55 PM62.6 °F44.6 °F52 %30.31 in10.0 miSouth (190°)8.1 mphClear
5:15 PM60.8 °F46.4 °F59 %30.31 in10.0 miSouth (190°)10.4 mphClear
5:35 PM60.8 °F46.4 °F59 %30.31 in10.0 miSouth (190°)5.8 mphClear
6:15 PM55.4 °F46.4 °F72 %30.31 in10.0 miSouth (180°)5.8 mphClear
6:35 PM53.6 °F46.4 °F77 %30.30 in10.0 miSouth (180°)6.9 mphClear
6:55 PM51.8 °F46.4 °F82 %30.30 in10.0 miSouth (170°)4.6 mphClear
7:15 PM51.8 °F46.4 °F82 %30.30 in10.0 miSouth (170°)4.6 mphClear
7:35 PM51.8 °F48.2 °F88 %30.30 in10.0 miSSE (160°)4.6 mphClear
7:55 PM51.8 °F46.4 °F82 %30.31 in10.0 miSSE (160°)3.5 mphClear
8:15 PM51.8 °F48.2 °F88 %30.31 in10.0 miCalmClear
8:35 PM50.0 °F46.4 °F87 %30.31 in10.0 miCalmClear
8:55 PM50.0 °F48.2 °F94 %30.32 in10.0 miCalmClear
9:15 PM50.0 °F48.2 °F94 %30.32 in10.0 miCalmClear
9:35 PM46.4 °F46.4 °F100 %30.32 in10.0 miCalmClear
9:55 PM48.2 °F46.4 °F93 %30.32 in10.0 miSSE (160°)4.6 mphClear
10:15 PM50.0 °F48.2 °F94 %30.31 in10.0 miSSE (150°)4.6 mphClear
10:35 PM50.0 °F46.4 °F87 %30.32 in10.0 miCalmClear
10:55 PM50.0 °F46.4 °F87 %30.31 in10.0 miCalmClear
11:15 PM46.4 °F44.6 °F93 %30.31 in10.0 miCalmClear
11:35 PM46.4 °F46.4 °F100 %30.30 in10.0 miCalmClear
11:55 PM44.6 °F44.6 °F100 %30.30 in10.0 miEast (90°)3.5 mphClear
Hourly data recorded from KUXL, located 13.07 miles away from Vinton, Louisiana







STORIES FROM OUR PARTNERS